| time (UTC) | temp F | wind direction | speed MPH | gust MPH | rain 1hr in | rain 24hr in | rain mn in | humidity % | barometer mb |
| 20260504045342 | 33 | 25 | 0.0 | 0.0 | 0.00 | 0.02 | 0.00 | 88 | 995.0 |
| 20260504044835 | 33 | 25 | 0.0 | 0.0 | 0.00 | 0.02 | 0.00 | 88 | 995.1 |
| 20260504044330 | 33 | 25 | 0.0 | 0.0 | 0.00 | 0.02 | 0.00 | 88 | 995.1 |
| 20260504043824 | 33 | 25 | 0.0 | 0.0 | 0.00 | 0.02 | 0.00 | 87 | 995.1 |
| 20260504043318 | 33 | 25 | 0.0 | 0.0 | 0.00 | 0.02 | 0.00 | 87 | 995.2 |
| 20260504042812 | 33 | 25 | 0.0 | 0.0 | 0.00 | 0.02 | 0.00 | 87 | 995.1 |
| 20260504042306 | 33 | 25 | 0.0 | 0.0 | 0.00 | 0.02 | 0.00 | 87 | 995.0 |
| 20260504041800 | 33 | 25 | 0.0 | 0.0 | 0.00 | 0.02 | 0.00 | 87 | 995.1 |
| 20260504041253 | 33 | 25 | 0.0 | 0.0 | 0.00 | 0.02 | 0.00 | 87 | 995.0 |
| 20260504040747 | 33 | 25 | 0.0 | 0.0 | 0.00 | 0.02 | 0.00 | 87 | 995.0 |
| 20260504040241 | 33 | 25 | 0.0 | 0.0 | 0.00 | 0.02 | 0.00 | 87 | 994.9 |
| 20260504035737 | 34 | 25 | 0.0 | 0.0 | 0.00 | 0.02 | 0.02 | 87 | 994.9 |
| 20260504034725 | 34 | 25 | 0.0 | 0.0 | 0.00 | 0.02 | 0.02 | 86 | 995.0 |
| 20260504034218 | 34 | 25 | 0.0 | 0.0 | 0.00 | 0.02 | 0.02 | 86 | 995.0 |
| 20260504032701 | 34 | 25 | 0.0 | 0.0 | 0.00 | 0.02 | 0.02 | 86 | 994.9 |
| 20260504032154 | 35 | 25 | 0.0 | 0.0 | 0.00 | 0.02 | 0.02 | 86 | 994.8 |
| 20260504031648 | 35 | 25 | 0.0 | 0.0 | 0.00 | 0.02 | 0.02 | 85 | 994.9 |
| 20260504031142 | 35 | 25 | 0.0 | 0.0 | 0.00 | 0.02 | 0.02 | 86 | 994.8 |
| 20260504030636 | 35 | 25 | 0.0 | 0.0 | 0.00 | 0.02 | 0.02 | 86 | 994.8 |
| 20260504030131 | 35 | 25 | 0.0 | 0.0 | 0.00 | 0.02 | 0.02 | 85 | 994.8 |
| 20260504025119 | 35 | 25 | 0.0 | 0.0 | 0.00 | 0.02 | 0.02 | 85 | 994.8 |
| 20260504024612 | 35 | 25 | 0.0 | 0.0 | 0.00 | 0.02 | 0.02 | 85 | 994.8 |
| 20260504024107 | 35 | 25 | 0.0 | 0.0 | 0.00 | 0.02 | 0.02 | 84 | 994.8 |
| 20260504023601 | 36 | 25 | 0.0 | 0.0 | 0.00 | 0.02 | 0.02 | 84 | 994.8 |
| 20260504023055 | 36 | 25 | 0.0 | 0.0 | 0.00 | 0.02 | 0.02 | 84 | 994.9 |
| 20260504022549 | 36 | 25 | 0.0 | 0.0 | 0.00 | 0.02 | 0.02 | 84 | 994.8 |
| 20260504022042 | 36 | 25 | 0.0 | 0.0 | 0.00 | 0.02 | 0.02 | 84 | 994.9 |
| 20260504021536 | 37 | 25 | 0.0 | 0.0 | 0.00 | 0.03 | 0.02 | 84 | 994.9 |
| 20260504020525 | 37 | 25 | 0.0 | 0.0 | 0.00 | 0.05 | 0.02 | 83 | 994.8 |
| 20260504020019 | 37 | 25 | 0.0 | 0.0 | 0.00 | 0.05 | 0.02 | 83 | 994.8 |
| 20260504015513 | 37 | 25 | 0.0 | 0.0 | 0.00 | 0.05 | 0.02 | 83 | 994.7 |
| 20260504015013 | 38 | 25 | 0.0 | 0.0 | 0.00 | 0.05 | 0.02 | 82 | 994.7 |
| 20260504014011 | 38 | 25 | 0.0 | 0.0 | 0.00 | 0.05 | 0.02 | 82 | 994.6 |
| 20260504013511 | 38 | 25 | 0.0 | 0.0 | 0.00 | 0.05 | 0.02 | 82 | 994.6 |
| 20260504013012 | 39 | 25 | 0.0 | 0.0 | 0.00 | 0.05 | 0.02 | 82 | 994.6 |
| 20260504012508 | 39 | 25 | 0.0 | 0.0 | 0.00 | 0.05 | 0.02 | 81 | 994.5 |
| 20260504011508 | 39 | 25 | 0.0 | 0.0 | 0.00 | 0.05 | 0.02 | 81 | 994.4 |
| 20260504010508 | 39 | 25 | 0.0 | 0.0 | 0.00 | 0.05 | 0.02 | 80 | 994.3 |
| 20260504010008 | 40 | 25 | 0.0 | 0.0 | 0.00 | 0.05 | 0.02 | 81 | 994.2 |
| 20260504005506 | 40 | 25 | 0.0 | 0.0 | 0.00 | 0.05 | 0.02 | 80 | 994.1 |
| 20260504005009 | 40 | 25 | 0.0 | 0.0 | 0.00 | 0.05 | 0.02 | 79 | 994.1 |
| 20260504004008 | 41 | 25 | 0.0 | 0.0 | 0.00 | 0.05 | 0.02 | 77 | 994.0 |
| 20260504003505 | 41 | 25 | 0.0 | 0.0 | 0.00 | 0.05 | 0.02 | 76 | 994.0 |
| 20260504003004 | 42 | 25 | 0.0 | 0.0 | 0.00 | 0.05 | 0.02 | 78 | 994.0 |
| 20260504002504 | 42 | 25 | 0.0 | 0.0 | 0.00 | 0.05 | 0.02 | 75 | 994.0 |
| 20260504002002 | 43 | 25 | 0.0 | 0.0 | 0.00 | 0.05 | 0.02 | 76 | 993.9 |
| 20260504001503 | 43 | 25 | 0.0 | 0.0 | 0.00 | 0.05 | 0.02 | 72 | 993.8 |
| 20260504000504 | 44 | 25 | 0.0 | 0.0 | 0.00 | 0.05 | 0.02 | 73 | 993.7 |
| 20260504000003 | 44 | 25 | 0.0 | 0.0 | 0.00 | 0.05 | 0.02 | 72 | 993.6 |
| 20260503235504 | 45 | 25 | 0.0 | 0.0 | 0.00 | 0.05 | 0.02 | 70 | 993.6 |
| 20260503235003 | 45 | 25 | 0.0 | 0.0 | 0.00 | 0.05 | 0.02 | 66 | 993.6 |
| 20260503234504 | 46 | 25 | 0.0 | 0.0 | 0.00 | 0.05 | 0.02 | 67 | 993.5 |
| 20260503234002 | 46 | 25 | 0.0 | 0.0 | 0.00 | 0.05 | 0.02 | 66 | 993.5 |
| 20260503233504 | 46 | 25 | 0.0 | 0.0 | 0.00 | 0.05 | 0.02 | 65 | 993.5 |
| 20260503233003 | 47 | 25 | 0.0 | 0.0 | 0.00 | 0.05 | 0.02 | 65 | 993.4 |
| 20260503232002 | 48 | 25 | 0.0 | 0.0 | 0.00 | 0.06 | 0.02 | 63 | 993.5 |
| 20260503231502 | 48 | 25 | 0.0 | 3.0 | 0.00 | 0.06 | 0.02 | 62 | 993.4 |
| 20260503231003 | 48 | 25 | 0.0 | 3.0 | 0.00 | 0.08 | 0.02 | 58 | 993.3 |
| 20260503225951 | 49 | 86 | 0.0 | 2.0 | 0.00 | 0.09 | 0.02 | 57 | 993.3 |
| 20260503225445 | 49 | 84 | 0.0 | 2.0 | 0.00 | 0.09 | 0.02 | 57 | 993.2 |
| 20260503224939 | 49 | 84 | 1.0 | 2.0 | 0.00 | 0.09 | 0.02 | 54 | 993.2 |
| 20260503224434 | 49 | 84 | 1.0 | 3.0 | 0.00 | 0.10 | 0.02 | 58 | 993.2 |
| 20260503223421 | 50 | 132 | 1.0 | 4.0 | 0.00 | 0.10 | 0.02 | 52 | 993.1 |
| 20260503222915 | 50 | 346 | 1.0 | 4.0 | 0.00 | 0.10 | 0.02 | 53 | 993.2 |
| 20260503222408 | 50 | 327 | 1.0 | 4.0 | 0.00 | 0.10 | 0.02 | 52 | 993.0 |
| 20260503221902 | 50 | 314 | 2.0 | 4.0 | 0.00 | 0.10 | 0.02 | 53 | 992.9 |
| 20260503221357 | 50 | 267 | 1.0 | 4.0 | 0.00 | 0.10 | 0.02 | 51 | 993.0 |
| 20260503220851 | 49 | 28 | 1.0 | 4.0 | 0.00 | 0.10 | 0.02 | 53 | 992.9 |
| 20260503220345 | 49 | 336 | 2.0 | 4.0 | 0.00 | 0.10 | 0.02 | 56 | 992.9 |
| 20260503214827 | 49 | 344 | 2.0 | 5.0 | 0.00 | 0.12 | 0.02 | 52 | 992.7 |
| 20260503214320 | 50 | 309 | 2.0 | 5.0 | 0.00 | 0.13 | 0.02 | 50 | 992.8 |
| 20260503213814 | 50 | 320 | 2.0 | 4.0 | 0.00 | 0.13 | 0.02 | 50 | 992.7 |
| 20260503212802 | 50 | 102 | 2.0 | 5.0 | 0.00 | 0.14 | 0.02 | 49 | 992.7 |
| 20260503212256 | 50 | 335 | 2.0 | 6.0 | 0.00 | 0.14 | 0.02 | 50 | 992.6 |
| 20260503211751 | 50 | 330 | 3.0 | 6.0 | 0.00 | 0.15 | 0.02 | 48 | 992.5 |
| 20260503211244 | 50 | 204 | 2.0 | 6.0 | 0.00 | 0.15 | 0.02 | 48 | 992.4 |
| 20260503210738 | 50 | 284 | 2.0 | 6.0 | 0.00 | 0.17 | 0.02 | 51 | 992.4 |
| 20260503210233 | 50 | 5 | 2.0 | 6.0 | 0.00 | 0.18 | 0.02 | 48 | 992.3 |
| 20260503205220 | 50 | 13 | 2.0 | 6.0 | 0.00 | 0.20 | 0.02 | 48 | 992.3 |
| 20260503204714 | 50 | 38 | 2.0 | 6.0 | 0.00 | 0.21 | 0.02 | 51 | 992.2 |
| 20260503204209 | 50 | 338 | 2.0 | 4.0 | 0.00 | 0.21 | 0.02 | 53 | 992.2 |
| 20260503203703 | 50 | 332 | 2.0 | 5.0 | 0.00 | 0.21 | 0.02 | 52 | 992.3 |
| 20260503203156 | 50 | 298 | 2.0 | 5.0 | 0.00 | 0.21 | 0.02 | 49 | 992.0 |
| 20260503202651 | 51 | 307 | 2.0 | 4.0 | 0.00 | 0.21 | 0.02 | 50 | 992.0 |
| 20260503201639 | 51 | 297 | 2.0 | 5.0 | 0.00 | 0.21 | 0.02 | 49 | 991.9 |
| 20260503201133 | 51 | 342 | 2.0 | 7.0 | 0.00 | 0.21 | 0.02 | 52 | 991.9 |
| 20260503200120 | 51 | 302 | 3.0 | 7.0 | 0.00 | 0.22 | 0.02 | 49 | 992.0 |
| 20260503195614 | 51 | 318 | 3.0 | 7.0 | 0.00 | 0.23 | 0.02 | 46 | 991.9 |
| 20260503195108 | 51 | 306 | 2.0 | 8.0 | 0.01 | 0.23 | 0.02 | 50 | 992.0 |
| 20260503194603 | 51 | 340 | 3.0 | 8.0 | 0.01 | 0.24 | 0.02 | 49 | 991.9 |
| 20260503194056 | 51 | 215 | 2.0 | 6.0 | 0.01 | 0.25 | 0.02 | 49 | 992.0 |
| 20260503193550 | 51 | 312 | 1.0 | 6.0 | 0.01 | 0.26 | 0.02 | 51 | 991.9 |
| 20260503193045 | 51 | 240 | 2.0 | 6.0 | 0.01 | 0.26 | 0.02 | 54 | 991.9 |
| 20260503192539 | 51 | 332 | 2.0 | 6.0 | 0.01 | 0.27 | 0.02 | 53 | 991.9 |
| 20260503192033 | 51 | 331 | 2.0 | 8.0 | 0.01 | 0.27 | 0.02 | 51 | 992.0 |
| 20260503191527 | 51 | 330 | 2.0 | 8.0 | 0.01 | 0.27 | 0.02 | 50 | 991.9 |
| 20260503191021 | 51 | 155 | 1.0 | 4.0 | 0.01 | 0.27 | 0.02 | 53 | 991.9 |
| 20260503190515 | 50 | 126 | 2.0 | 6.0 | 0.01 | 0.27 | 0.02 | 51 | 991.9 |
| 20260503190008 | 50 | 56 | 2.0 | 8.0 | 0.01 | 0.27 | 0.02 | 52 | 991.9 |
| 20260503185502 | 51 | 343 | 2.0 | 8.0 | 0.01 | 0.27 | 0.02 | 52 | 991.9 |
| 20260503184450 | 51 | 108 | 2.0 | 5.0 | 0.00 | 0.26 | 0.01 | 52 | 991.8 |
| 20260503183944 | 51 | 342 | 1.0 | 4.0 | 0.00 | 0.26 | 0.01 | 51 | 991.8 |
| 20260503183439 | 51 | 347 | 1.0 | 4.0 | 0.00 | 0.26 | 0.01 | 54 | 991.9 |
| 20260503182932 | 51 | 350 | 1.0 | 4.0 | 0.00 | 0.26 | 0.01 | 56 | 991.9 |
| 20260503182426 | 51 | 75 | 2.0 | 4.0 | 0.00 | 0.26 | 0.01 | 55 | 991.9 |
| 20260503181921 | 50 | 312 | 1.0 | 4.0 | 0.00 | 0.26 | 0.01 | 55 | 991.8 |
| 20260503181418 | 50 | 313 | 1.0 | 4.0 | 0.00 | 0.26 | 0.01 | 60 | 992.0 |
| 20260503180908 | 50 | 5 | 2.0 | 4.0 | 0.00 | 0.26 | 0.01 | 56 | 992.0 |
| 20260503180403 | 50 | 73 | 2.0 | 6.0 | 0.00 | 0.26 | 0.01 | 56 | 991.9 |
| 20260503175857 | 50 | 38 | 2.0 | 7.0 | 0.00 | 0.26 | 0.01 | 60 | 992.0 |
| 20260503175350 | 50 | 347 | 2.0 | 7.0 | 0.00 | 0.26 | 0.01 | 59 | 992.0 |
| 20260503174347 | 50 | 329 | 2.0 | 6.0 | 0.00 | 0.27 | 0.01 | 58 | 991.9 |
| 20260503172347 | 50 | 347 | 2.0 | 5.0 | 0.00 | 0.28 | 0.01 | 58 | 992.0 |
| 20260503171847 | 50 | 108 | 2.0 | 7.0 | 0.00 | 0.30 | 0.01 | 60 | 992.2 |
| 20260503171346 | 49 | 254 | 2.0 | 7.0 | 0.00 | 0.31 | 0.01 | 61 | 992.2 |
| 20260503170845 | 49 | 0 | 3.0 | 6.0 | 0.00 | 0.32 | 0.01 | 59 | 992.1 |
| 20260503170346 | 49 | 284 | 3.0 | 6.0 | 0.00 | 0.32 | 0.01 | 61 | 992.2 |
| 20260503150833 | 44 | 355 | 0.0 | 4.0 | 0.00 | 0.33 | 0.01 | 83 | 992.8 |
| 20260503150332 | 44 | 303 | 0.0 | 4.0 | 0.00 | 0.33 | 0.01 | 83 | 992.8 |
| 20260503140227 | 41 | 340 | 0.0 | 2.0 | 0.00 | 0.33 | 0.01 | 91 | 992.9 |
| 20260503131127 | 40 | 40 | 0.0 | 7.0 | 0.00 | 0.33 | 0.01 | 92 | 993.2 |
| 20260503110426 | 39 | 60 | 0.0 | 0.0 | 0.00 | 0.38 | 0.01 | 93 | 993.3 |
| 20260503090408 | 38 | 60 | 0.0 | 0.0 | 0.01 | 0.50 | 0.01 | 93 | 993.5 |
| 20260503081344 | 38 | 60 | 0.0 | 0.0 | 0.01 | 0.55 | 0.01 | 93 | 994.0 |
| 20260503080837 | 38 | 60 | 0.0 | 0.0 | 0.00 | 0.54 | 0.00 | 93 | 994.1 |
| 20260503080331 | 38 | 60 | 0.0 | 0.0 | 0.00 | 0.54 | 0.00 | 93 | 994.1 |
| 20260503072748 | 39 | 60 | 0.0 | 0.0 | 0.00 | 0.55 | 0.00 | 93 | 994.2 |
| 20260503071230 | 39 | 60 | 0.0 | 0.0 | 0.00 | 0.55 | 0.00 | 92 | 994.5 |
| 20260503070724 | 39 | 60 | 0.0 | 0.0 | 0.00 | 0.55 | 0.00 | 92 | 994.6 |
| 20260503070219 | 39 | 60 | 0.0 | 0.0 | 0.00 | 0.55 | 0.00 | 92 | 994.6 |